Change the Weather History Date:

Saturday, April 19, 2014

  Actual Average Record
Temperature  
Mean Temperature 75 °F 68 °F  
Max Temperature 85 °F 79 °F 98 °F (1938)
Min Temperature 64 °F 57 °F 35 °F (1968)
Degree Days  
Heating Degree Days 0 2  
Month to date heating degree days 35 52  
Since 1 July heating degree days 1506 1932  
Cooling Degree Days 10 5  
Month to date cooling degree days 127 60  
Year to date cooling degree days 161 91  
Growing Degree Days 24 (Base 50)    
Moisture  
Dew Point 36 °F    
Average Humidity 27    
Maximum Humidity 40    
Minimum Humidity 14    
Precipitation  
Precipitation 0.00 in 0.00 in 0.31 in (1952)
Month to date precipitation T 0.11  
Year to date precipitation 0.30 1.85  
Snow  
Snow 0.00 in 0.00 in 0.00 in ()
Month to date snowfall 0.0 0.0  
Since 1 July snowfall 0.0 0.3  
Snow Depth 0.00 in    
Sea Level Pressure  
Sea Level Pressure 29.84 in    
Wind  
Wind Speed 8 mph (South)    
Max Wind Speed 18 mph    
Max Gust Speed 23 mph    
Visibility 10 miles    
Events      
T = Trace of Precipitation, MM = Missing Value Source: NWS Daily Summary

Daily Weather History Graph

Daily Weather History Graph

Search for Another Location

Airport or City:

Trip Planner

Search our weather history database for the weather conditions in past years. The results will help you decide how hot, cold, wet, or windy it might be!

Date:

Astronomy

Apr. 19, 2014 Rise Set
Actual Time 6:02 AM PDT 7:17 PM PDT
Civil Twilight 5:35 AM PDT 7:44 PM PDT
Nautical Twilight 5:03 AM PDT 8:16 PM PDT
Astronomical Twilight 4:30 AM PDT 8:49 PM PDT
Moon 11:58 PM PDT (4/19) 9:29 AM PDT (4/19)
Length of Visible Light 14h 09m
Length of Day
13h 15m
Waning Gibbous, 77% of the Moon is Illuminated
Apr 19
Waning Gibbous
Apr 22
Last Quarter
Apr 28
New
May 6
First Quarter
May 14
Full

Hourly Weather History & Observations

Time (PDT) Temp. Dew Point Humidity Pressure Visibility Wind Dir Wind Speed Gust Speed Precip Events Conditions
12:56 AM 69.1 °F 39.0 °F 33% 29.80 in 10.0 mi South 15.0 mph - N/A   Mostly Cloudy
1:56 AM 66.9 °F 39.0 °F 36% 29.80 in 10.0 mi South 16.1 mph - N/A   Mostly Cloudy
2:56 AM 66.9 °F 37.9 °F 34% 29.81 in 10.0 mi South 11.5 mph - N/A   Scattered Clouds
3:56 AM 66.0 °F 39.0 °F 37% 29.83 in 10.0 mi South 12.7 mph - N/A   Scattered Clouds
4:56 AM 66.0 °F 39.0 °F 37% 29.83 in 10.0 mi SSW 10.4 mph - N/A   Scattered Clouds
5:56 AM 64.0 °F 39.0 °F 40% 29.85 in 10.0 mi SSW 8.1 mph - N/A   Scattered Clouds
6:56 AM 64.0 °F 39.0 °F 40% 29.86 in 10.0 mi WSW 9.2 mph - N/A   Partly Cloudy
7:56 AM 68.0 °F 41.0 °F 37% 29.88 in 10.0 mi Calm Calm - N/A   Partly Cloudy
8:56 AM 71.1 °F 41.0 °F 34% 29.89 in 10.0 mi SSE 4.6 mph - N/A   Partly Cloudy
9:56 AM 73.0 °F 39.0 °F 29% 29.90 in 10.0 mi SSW 3.5 mph - N/A   Scattered Clouds
10:56 AM 75.9 °F 37.9 °F 25% 29.89 in 10.0 mi Calm Calm - N/A   Scattered Clouds
11:56 AM 77.0 °F 36.0 °F 23% 29.88 in 10.0 mi South 5.8 mph - N/A   Scattered Clouds
12:56 PM 81.0 °F 35.1 °F 19% 29.86 in 10.0 mi Variable 4.6 mph - N/A   Scattered Clouds
1:56 PM 81.0 °F 33.1 °F 18% 29.84 in 10.0 mi SSW 10.4 mph - N/A   Scattered Clouds
2:56 PM 82.0 °F 32.0 °F 16% 29.81 in 10.0 mi South 10.4 mph - N/A   Scattered Clouds
3:56 PM 82.9 °F 30.9 °F 15% 29.80 in 10.0 mi South 4.6 mph - N/A   Scattered Clouds
4:56 PM 82.9 °F 28.9 °F 14% 29.79 in 10.0 mi SSE 4.6 mph - N/A   Mostly Cloudy
5:56 PM 82.9 °F 28.9 °F 14% 29.79 in 10.0 mi South 8.1 mph - N/A   Mostly Cloudy
6:56 PM 82.9 °F 30.9 °F 15% 29.79 in 10.0 mi South 6.9 mph - N/A   Scattered Clouds
7:56 PM 81.0 °F 30.9 °F 16% 29.80 in 10.0 mi SSE 5.8 mph - N/A   Partly Cloudy
8:56 PM 80.1 °F 34.0 °F 19% 29.83 in 10.0 mi SW 6.9 mph - N/A   Clear
9:56 PM 78.1 °F 34.0 °F 20% 29.84 in 10.0 mi South 11.5 mph - N/A   Clear
10:56 PM 77.0 °F 35.1 °F 22% 29.85 in 10.0 mi South 11.5 mph - N/A   Clear
11:56 PM 75.0 °F 34.0 °F 22% 29.85 in 10.0 mi South 10.4 mph - N/A   Clear